Home > Weather > Kassel > Past weeks

Flag for Germany Weather for the Past 2 Weeks in Kassel, Hesse, Germany

Now
37 °F

Partly cloudy.


Feels Like: 30 °F
Forecast: 34 / 42 °F
Wind: 12 mph from Southwest

Location: Fritzlar Airport

Current Time: Feb 10, 2016 at 5:55:51 AM

Latest Report: Feb 10, 2016 at 4:20 AM


Visibility: N/A

Pressure: 29.27 "Hg

Humidity: 81%

Dew point: 32 °F

Location of KasselLocation

Historic Weather in Kassel — Graph

°F

Kassel Temperature Yesterday

Maximum temperature yesterday: 48 °F (at 4:20 PM)
Minimum temperature yesterday: 39 °F (at 9:20 PM)
Average temperature yesterday: 44 °F

High & Low Weather Summary for the Past Weeks

 TemperatureHumidityPressure
High54 °F (Feb 1, 10:20 AM)100% (Feb 1, 5:20 AM)30.33 "Hg (Feb 1, 5:20 AM)
Low30 °F (Jan 28, 11:20 PM)50% (Jan 28, 2:20 PM)28.88 "Hg (Feb 9, 6:20 PM)
Average44 °F80%29.92 "Hg
* Reported Jan 26 4:20 AM — Feb 10 4:20 AM, Kassel, Weather by CustomWeather, © 2016

Note: Actual official high and low records may vary slightly from our data, if they occured in-between our weather recording intervals... More about our weather records

Advertising

Kassel Weather History for the Previous 24 Hours

 ConditionsComfort  
Time TempWeatherWind HumidityBarometerVisibility
4:20 AM
Wed, Feb 10
37 °FPartly cloudy.12 mph81%29.27 "HgN/A
3:20 AM37 °FLight rain. Passing clouds.10 mph81%29.27 "HgN/A
2:20 AM37 °FPassing clouds.12 mph81%29.27 "HgN/A
1:20 AM39 °FPassing clouds.10 mph75%29.27 "HgN/A
12:20 AM39 °FPassing clouds.13 mph75%29.24 "HgN/A
11:20 PM
Tue, Feb 9
39 °FPassing clouds.13 mph81%29.21 "HgN/A
10:20 PM39 °FPassing clouds.15 mph75%29.12 "HgN/A
9:20 PM39 °FPartly cloudy.21 mph81%29.06 "HgN/A
8:20 PM45 °FLight rain. Partly cloudy.25 mph87%28.97 "Hg5 mi
8:04 PM45 °FRain. Partly cloudy.24 mph87%28.94 "Hg3 mi
7:20 PM46 °FLight rain. Partly cloudy.20 mph82%28.94 "HgN/A
6:20 PM46 °FLight rain. Passing clouds.23 mph82%28.88 "HgN/A
5:20 PM46 °FLight rain. Mostly cloudy.23 mph87%28.97 "Hg5 mi
5:00 PM46 °FRain. Fog.17 mph87%28.97 "Hg3 mi
4:20 PM48 °FLight rain. Broken clouds.21 mph82%28.97 "HgN/A
3:20 PM45 °FRain. Mostly cloudy.8 mph87%29.03 "Hg4 mi
2:20 PM41 °FRain. Fog.8 mph93%29.12 "Hg3 mi
1:20 PM41 °FRain. Fog.17 mph87%29.21 "Hg3 mi
12:20 PM45 °FRain. Mostly cloudy.13 mph81%29.30 "Hg4 mi
11:20 AM45 °FOvercast.12 mph76%29.33 "HgN/A
10:20 AM43 °FPartly sunny.16 mph76%29.42 "HgN/A
9:20 AM43 °FBroken clouds.9 mph76%29.45 "HgN/A
8:20 AM43 °FPartly sunny.14 mph76%29.45 "HgN/A
7:20 AM43 °FPartly cloudy.17 mph76%29.47 "HgN/A
6:20 AM43 °FPassing clouds.17 mph71%29.50 "HgN/A
5:20 AM43 °FPassing clouds.16 mph71%29.50 "HgN/A
Weather by CustomWeather, © 2016

See weather overviewHow to use our weather pages